Kenosha, WI

4:40 PM CDT on September 21, 2017 (GMT -0500)
Kenosha Regional

Weather History for KENW - October, 2012

Change the Weather History Date:

Monday, October 1, 2012

  Actual Average Record
Temperature  
Mean Temperature 52 °F -  
Max Temperature 66 °F 66 °F 85 °F (1971)
Min Temperature 39 °F 47 °F 28 °F (2003)
Degree Days  
Heating Degree Days 14    
Growing Degree Days 2 (Base 50)    
Moisture  
Dew Point 42 °F    
Average Humidity 81    
Maximum Humidity 100    
Minimum Humidity 43    
Precipitation  
Precipitation 0.00 in - - ()
Sea Level Pressure  
Sea Level Pressure 29.91 in    
Wind  
Wind Speed 1 mph (NNW)    
Max Wind Speed 8 mph    
Max Gust Speed -    
Visibility 6 miles    
Events Fog    
Averages and records for this station are not official NWS values.
T = Trace of Precipitation, MM = Missing Value Source: NWS Daily Summary

Daily Weather History Graph

Daily Weather History Graph

Search for Another Location

Airport or City:

Trip Planner

Search our weather history database for the weather conditions in past years. The results will help you decide how hot, cold, wet, or windy it might be!

Date:

Astronomy

Oct. 01, 2012 Rise Set
Actual Time 6:49 AM CDT 6:32 PM CDT
Civil Twilight 6:21 AM CDT 7:00 PM CDT
Nautical Twilight 5:48 AM CDT 7:32 PM CDT
Astronomical Twilight 5:15 AM CDT 8:05 PM CDT
Moon 7:05 PM CDT (10/1) 8:21 AM CDT (10/1)
Length of Visible Light 12h 38m
Length of Day
11h 42m
Full, 98% of the Moon is Illuminated
Oct 1
Full
Oct 8
Last Quarter
Oct 15
New
Oct 21
First Quarter
Oct 29
Full

Hourly Weather History & Observations

Time (CDT) Temp. Windchill Dew Point Humidity Pressure Visibility Wind Dir Wind Speed Gust Speed Precip Events Conditions
12:53 AM 41.0 °F - 39.0 °F 93% 29.96 in 8.0 mi Calm Calm - N/A   Clear
1:53 AM 43.0 °F - 41.0 °F 93% 29.95 in 9.0 mi Calm Calm - N/A   Clear
2:53 AM 41.0 °F - 37.9 °F 89% 29.93 in 9.0 mi Calm Calm - N/A   Clear
4:17 AM 41.0 °F - 39.2 °F 93% 29.91 in 2.5 mi Calm Calm - N/A   Clear
4:24 AM 41.0 °F - 39.2 °F 93% 29.91 in 5.0 mi Calm Calm - N/A   Clear
4:39 AM 42.8 °F - 41.0 °F 93% 29.92 in 1.8 mi Calm Calm - N/A   Clear
4:49 AM 41.0 °F - 39.2 °F 93% 29.92 in 0.8 mi Calm Calm - N/A   Clear
4:53 AM 42.1 °F - 39.9 °F 92% 29.92 in 0.8 mi Calm Calm - N/A   Clear
5:15 AM 39.2 °F - 39.2 °F 100% 29.92 in 1.2 mi Calm Calm - N/A   Clear
5:46 AM 39.2 °F 37.0 °F 37.4 °F 93% 29.92 in 0.8 mi West 3.5 mph - N/A   Clear
5:53 AM 39.9 °F 37.8 °F 39.0 °F 97% 29.93 in 0.8 mi WNW 3.5 mph - N/A   Clear
6:02 AM 42.8 °F 41.1 °F 41.0 °F 93% 29.92 in 2.5 mi NNW 3.5 mph - N/A   Clear
6:09 AM 41.0 °F 39.0 °F 39.2 °F 93% 29.92 in 6.0 mi NNW 3.5 mph - N/A   Clear
6:39 AM 41.0 °F - 39.2 °F 93% 29.92 in 1.2 mi Calm Calm - N/A   Clear
6:53 AM 41.0 °F - 39.0 °F 93% 29.94 in 2.0 mi Calm Calm - N/A   Clear
6:58 AM 42.8 °F 41.1 °F 39.2 °F 87% 29.92 in 0.5 mi NW 3.5 mph - N/A Fog Fog
7:06 AM 41.0 °F - 39.2 °F 93% 29.93 in 10.0 mi Calm Calm - N/A   Clear
7:53 AM 45.0 °F - 43.0 °F 93% 29.95 in 10.0 mi Calm Calm - N/A   Clear
8:53 AM 53.1 °F - 48.0 °F 83% 29.94 in 10.0 mi Calm Calm - N/A   Clear
9:53 AM 61.0 °F - 51.1 °F 70% 29.94 in 10.0 mi Calm Calm - N/A   Clear
10:53 AM 63.0 °F - 46.0 °F 54% 29.93 in 10.0 mi Variable 3.5 mph - N/A   Clear
11:53 AM 64.9 °F - 44.1 °F 47% 29.91 in 10.0 mi Variable 3.5 mph - N/A   Scattered Clouds
12:53 PM 64.9 °F - 44.1 °F 47% 29.90 in 10.0 mi SE 6.9 mph - N/A   Partly Cloudy
1:53 PM 64.9 °F - 42.1 °F 43% 29.88 in 10.0 mi ESE 8.1 mph - N/A   Clear
2:53 PM 64.9 °F - 42.1 °F 43% 29.87 in 10.0 mi ESE 6.9 mph - N/A   Clear
5:53 PM 60.1 °F - 46.9 °F 62% 29.86 in 10.0 mi ESE 4.6 mph - N/A   Clear
6:53 PM 57.0 °F - 46.9 °F 69% 29.86 in 10.0 mi Calm Calm - N/A   Clear
7:53 PM 53.1 °F - 46.9 °F 80% 29.87 in 10.0 mi Calm Calm - N/A   Clear
8:53 PM 52.0 °F - 46.0 °F 80% 29.88 in 10.0 mi North 3.5 mph - N/A   Clear
9:53 PM 50.0 °F - 46.0 °F 86% 29.87 in 10.0 mi Calm Calm - N/A   Clear
11:53 PM 52.0 °F - 46.9 °F 83% 29.85 in 10.0 mi Calm Calm - N/A   Clear